星链-2181 (STARLINK-2181 )

导读

STARLINK-2181是美国太空探索技术公司SpaceX星链星座中的一员,于2021年3月4日发射入轨。星链项目旨在搭建全球低轨卫星互联网,为偏远地区等提供高速宽带服务。该卫星属于量产型星链卫星,采用平板设计,搭载霍尔推进器,具备自主避撞能力,设计使用寿命约5至7年,退役后会主动离轨在大气层焚毁,服务全球互联覆盖。

Basic Information
目录编号:
47763
目录名称:
STARLINK-2181
国际标识:
2021-017AT
轨道中心:
EARTH
卫星名称:
星链-2181
卫星全名:
星链-2181 (STARLINK-2181 )
卫星状态:
已陨落 最后检测时间 2025-01-07
发射日期:
2021-03-04 UTC
国别 :
美国 (US)
星等 :
--
Orbit Information
数据来源 国际轨道数据
星历时间: 2025-01-07T23:13:53+0800
轨道信息已过期527天
半长轴: 6537.092km
偏心率: 0.0002057
轨道倾角: 53.032°
近地点辐角 196.582°
升交点赤经 303.522°
平近点角 304.810°
近地点: 157.612km
远地点: 160.302km
周期: 87.667分钟
每日圈数: 16.425775
Detailed Information
固有亮度:
5
最大亮度:
2.5
卫星平台:
Starlink V1.0
覆盖范围:
全球
运营商:
太空探索技术公司
运营商所在国:
美国
制造商(研发单位):
太空探索技术公司
制造商所在国:
美国
使用方式:
暂无
Satellite Introduction
星链(Starlink)计划是由太空探索技术公司(SpaceX)提出的一个巨型低轨卫星互联网星座项目,计划在2019年至2024年间在太空搭建由约1.2万颗卫星组成的“星链”网络,其中1584颗将部署在地球上空550千米处的近地轨道,并从2020年开始工作。该卫星仍在工作。